QPF
0.00 0.00 0.00 0.00 0.00 0.00 0.00 0.00 0.00 0.00 0.00 0.00 0.00 0.00 0.00 0.00 0.00 0.00 0.00 0.00 0.00 0.00 0.00 0.01 0.01 0.01 0.02 0.03 0.03 0.04 0.05 0.06 0.07 0.06 0.07 0.07 0.05 0.04 0.05 0.05 0.04 0.04 0.04 0.03
0.00 0.00 0.00 0.00 0.00 0.00 0.00 0.00 0.00 0.00 0.00 0.00 0.00 0.00 0.00 0.00 0.00 0.00 0.00 0.00 0.00 0.00 0.00 0.00 0.00 0.01 0.02 0.02 0.02 0.02 0.04 0.07 0.06 0.05 0.06 0.07 0.06 0.05 0.05 0.06 0.06 0.05 0.05 0.04
0.00 0.00 0.00 0.00 0.00 0.00 0.00 0.00 0.00 0.00 0.00 0.00 0.00 0.00 0.00 0.00 0.00 0.00 0.00 0.01 0.00 0.01 0.01 0.01 0.01 0.02 0.02 0.02 0.04 0.05 0.07 0.08 0.08 0.08 0.07 0.06 0.06 0.06 0.06 0.07 0.08 0.08 0.07 0.06
0.00 0.00 0.00 0.00 0.00 0.00 0.00 0.00 0.00 0.00 0.00 0.00 0.00 0.00 0.01 0.00 0.00 0.01 0.01 0.01 0.01 0.01 0.01 0.02 0.02 0.02 0.03 0.04 0.05 0.06 0.08 0.07 0.07 0.07 0.06 0.05 0.05 0.07 0.08 0.07 0.06 0.05 0.05 0.05
0.01 0.01 0.00 0.00 0.00 0.01 0.01 0.01 0.00 0.00 0.01 0.01 0.01 0.01 0.01 0.01 0.01 0.00 0.00 0.01 0.01 0.01 0.02 0.03 0.03 0.03 0.03 0.03 0.05 0.07 0.08 0.08 0.07 0.05 0.05 0.05 0.05 0.05 0.05 0.05 0.04 0.03 0.03 0.03
0.01 0.01 0.00 0.00 0.00 0.00 0.02 0.02 0.01 0.01 0.02 0.03 0.02 0.01 0.02 0.02 0.02 0.02 0.02 0.02 0.01 0.02 0.02 0.02 0.03 0.03 0.03 0.03 0.05 0.06 0.06 0.06 0.05 0.05 0.05 0.05 0.05 0.04 0.04 0.04 0.05 0.05 0.05 0.05
0.02 0.02 0.01 0.01 0.01 0.01 0.03 0.02 0.02 0.02 0.01 0.03 0.04 0.03 0.03 0.02 0.03 0.04 0.03 0.03 0.02 0.02 0.03 0.03 0.04 0.04 0.05 0.04 0.04 0.04 0.03 0.03 0.04 0.04 0.05 0.06 0.06 0.05 0.05 0.04 0.04 0.03 0.03 0.02
0.03 0.02 0.02 0.01 0.01 0.03 0.03 0.02 0.02 0.02 0.02 0.02 0.03 0.03 0.03 0.02 0.02 0.03 0.03 0.04 0.03 0.03 0.03 0.04 0.04 0.04 0.05 0.05 0.04 0.03 0.02 0.03 0.03 0.03 0.03 0.03 0.03 0.02 0.02 0.02 0.02 0.01 0.02 0.02
0.05 0.04 0.04 0.03 0.02 0.02 0.02 0.03 0.02 0.03 0.03 0.04 0.04 0.03 0.03 0.03 0.02 0.02 0.03 0.03 0.03 0.03 0.03 0.03 0.04 0.05 0.06 0.05 0.06 0.05 0.03 0.02 0.01 0.01 0.01 0.01 0.00 0.01 0.01 0.01 0.01 0.01 0.01 0.01
0.04 0.04 0.04 0.03 0.02 0.02 0.03 0.05 0.04 0.04 0.05 0.06 0.06 0.05 0.05 0.05 0.04 0.03 0.03 0.03 0.03 0.03 0.03 0.03 0.03 0.04 0.04 0.03 0.03 0.04 0.03 0.02 0.02 0.02 0.01 0.01 0.01 0.00 0.01 0.01 0.01 0.01 0.00 0.00
0.06 0.05 0.05 0.04 0.04 0.04 0.05 0.07 0.05 0.04 0.06 0.07 0.08 0.08 0.07 0.06 0.05 0.04 0.03 0.02 0.02 0.03 0.03 0.03 0.03 0.03 0.02 0.02 0.02 0.03 0.03 0.03 0.02 0.02 0.01 0.01 0.01 0.01 0.00 0.00 0.00 0.00 0.00 0.00
0.11 0.08 0.08 0.07 0.06 0.07 0.09 0.09 0.07 0.06 0.08 0.09 0.10 0.10 0.09 0.07 0.06 0.05 0.04 0.04 0.03 0.02 0.02 0.02 0.02 0.02 0.02 0.02 0.02 0.02 0.02 0.02 0.01 0.01 0.01 0.01 0.01 0.00 0.00 0.00 0.00 0.00 0.00 0.00
0.12 0.10 0.11 0.09 0.10 0.12 0.16 0.16 0.14 0.12 0.11 0.13 0.12 0.11 0.11 0.10 0.08 0.06 0.06 0.06 0.04 0.03 0.02 0.02 0.02 0.02 0.01 0.01 0.01 0.01 0.01 0.01 0.01 0.01 0.00 0.00 0.00 0.00 0.00 0.00 0.00 0.00 0.00 0.00
0.14 0.13 0.15 0.15 0.14 0.16 0.24 0.28 0.24 0.18 0.15 0.16 0.14 0.12 0.11 0.10 0.08 0.08 0.07 0.06 0.05 0.04 0.04 0.03 0.02 0.01 0.01 0.00 0.00 0.00 0.00 0.00 0.00 0.00 0.00 0.00 0.00 0.00 0.00 0.00 0.00 0.00 0.00 0.00
0.13 0.14 0.18 0.21 0.18 0.20 0.27 0.28 0.27 0.22 0.20 0.20 0.18 0.13 0.09 0.07 0.06 0.05 0.04 0.04 0.03 0.03 0.02 0.02 0.01 0.00 0.00 0.00 0.00 0.00 0.00 0.00 0.00 0.00 0.00 0.00 0.00 0.00 0.00 0.00 0.00 0.00 0.00 0.00
0.09 0.13 0.15 0.19 0.19 0.19 0.21 0.21 0.20 0.21 0.20 0.18 0.15 0.11 0.07 0.06 0.05 0.04 0.04 0.04 0.03 0.03 0.02 0.01 0.01 0.01 0.00 0.00 0.00 0.00 0.00 0.00 0.00 0.00 0.00 0.00 0.00 0.00 0.00 0.00 0.00 0.00 0.00 0.00
0.13 0.17 0.16 0.18 0.19 0.18 0.14 0.15 0.15 0.14 0.14 0.13 0.12 0.08 0.05 0.05 0.07 0.08 0.06 0.04 0.03 0.02 0.02 0.01 0.01 0.01 0.00 0.00 0.00 0.00 0.00 0.00 0.00 0.00 0.00 0.00 0.00 0.00 0.00 0.00 0.00 0.00 0.00 0.00
0.17 0.17 0.14 0.13 0.13 0.12 0.11 0.10 0.11 0.11 0.10 0.10 0.09 0.06 0.05 0.05 0.06 0.07 0.06 0.05 0.04 0.03 0.02 0.01 0.01 0.00 0.00 0.00 0.00 0.00 0.00 0.00 0.00 0.00 0.00 0.00 0.00 0.00 0.00 0.00 0.00 0.00 0.00 0.00
0.13 0.10 0.08 0.07 0.06 0.06 0.06 0.06 0.06 0.06 0.05 0.04 0.04 0.04 0.04 0.04 0.04 0.03 0.03 0.03 0.03 0.02 0.01 0.00 0.00 0.00 0.00 0.00 0.00 0.00 0.00 0.00 0.00 0.00 0.00 0.00 0.00 0.00 0.00 0.00 0.00 0.00 0.00 0.00
0.06 0.04 0.03 0.02 0.02 0.02 0.02 0.02 0.02 0.02 0.01 0.01 0.01 0.01 0.01 0.01 0.01 0.01 0.01 0.01 0.01 0.00 0.00 0.00 0.00 0.00 0.00 0.00 0.00 0.00 0.00 0.00 0.00 0.00 0.00 0.00 0.01 0.01 0.00 0.00 0.00 0.00 0.00 0.00
0.02 0.01 0.01 0.01 0.01 0.01 0.01 0.00 0.00 0.00 0.00 0.00 0.00 0.00 0.00 0.00 0.00 0.00 0.00 0.00 0.00 0.00 0.00 0.00 0.00 0.00 0.00 0.00 0.00 0.00 0.00 0.00 0.00 0.00 0.00 0.01 0.01 0.01 0.00 0.00 0.00 0.00 0.00 0.00
0.01 0.01 0.01 0.01 0.01 0.00 0.00 0.00 0.00 0.00 0.00 0.00 0.01 0.01 0.00 0.00 0.00 0.00 0.00 0.01 0.00 0.00 0.00 0.00 0.00 0.00 0.00 0.00 0.00 0.00 0.00 0.00 0.00 0.00 0.00 0.00 0.00 0.00 0.00 0.00 0.01 0.01 0.01 0.01
0.01 0.00 0.01 0.01 0.00 0.00 0.00 0.00 0.00 0.00 0.01 0.01 0.01 0.01 0.00 0.00 0.00 0.01 0.01 0.01 0.01 0.00 0.00 0.00 0.00 0.00 0.00 0.00 0.00 0.00 0.00 0.00 0.00 0.00 0.00 0.00 0.00 0.01 0.01 0.01 0.01 0.01 0.01 0.00
0.02 0.01 0.00 0.00 0.00 0.00 0.00 0.00 0.00 0.00 0.01 0.01 0.00 0.00 0.00 0.00 0.01 0.01 0.01 0.01 0.00 0.00 0.00 0.00 0.00 0.00 0.00 0.00 0.00 0.00 0.00 0.00 0.00 0.00 0.00 0.01 0.01 0.01 0.01 0.02 0.01 0.01 0.00 0.00
0.03 0.02 0.01 0.00 0.00 0.00 0.00 0.00 0.00 0.00 0.00 0.00 0.00 0.00 0.00 0.01 0.01 0.02 0.01 0.01 0.00 0.00 0.00 0.00 0.00 0.00 0.00 0.00 0.00 0.00 0.00 0.00 0.00 0.00 0.00 0.00 0.00 0.00 0.01 0.01 0.00 0.00 0.00 0.00
0.03 0.02 0.01 0.01 0.00 0.00 0.01 0.01 0.01 0.01 0.00 0.00 0.00 0.00 0.00 0.00 0.00 0.00 0.01 0.00 0.00 0.00 0.00 0.00 0.00 0.00 0.00 0.00 0.00 0.00 0.00 0.00 0.00 0.00 0.00 0.00 0.00 0.01 0.01 0.00 0.00 0.00 0.00 0.00
0.02 0.01 0.01 0.01 0.01 0.01 0.01 0.01 0.01 0.01 0.01 0.01 0.01 0.00 0.00 0.00 0.00 0.00 0.00 0.00 0.00 0.00 0.00 0.00 0.00 0.00 0.00 0.00 0.00 0.00 0.00 0.00 0.00 0.00 0.00 0.00 0.00 0.00 0.00 0.00 0.00 0.00 0.00 0.00
MSLP
1007.19 1007.19 1007.17 1007.11 1007.01 1006.86 1006.64 1006.36 1006.03 1005.66 1005.28 1004.94 1004.68 1004.54 1004.55 1004.71 1005.03 1005.48 1006.04 1006.67 1007.33 1007.99 1008.64 1009.27 1009.86 1010.43 1010.98 1011.51 1012.03 1012.52 1012.98 1013.40 1013.78 1014.11 1014.41 1014.67 1014.92 1015.16 1015.41 1015.66 1015.91 1016.17 1016.41 1016.64
1007.66 1007.59 1007.44 1007.24 1006.98 1006.67 1006.33 1005.97 1005.60 1005.25 1004.93 1004.66 1004.48 1004.39 1004.42 1004.55 1004.80 1005.15 1005.58 1006.08 1006.63 1007.21 1007.82 1008.45 1009.09 1009.74 1010.39 1011.02 1011.63 1012.21 1012.73 1013.20 1013.61 1013.98 1014.30 1014.61 1014.91 1015.21 1015.52 1015.84 1016.16 1016.48 1016.77 1017.05
1008.26 1008.12 1007.87 1007.54 1007.13 1006.70 1006.25 1005.82 1005.43 1005.09 1004.82 1004.62 1004.50 1004.46 1004.49 1004.59 1004.75 1004.98 1005.27 1005.63 1006.05 1006.54 1007.09 1007.71 1008.38 1009.10 1009.84 1010.58 1011.29 1011.96 1012.56 1013.09 1013.55 1013.96 1014.33 1014.68 1015.03 1015.39 1015.77 1016.17 1016.57 1016.95 1017.31 1017.64
1008.86 1008.67 1008.34 1007.90 1007.39 1006.85 1006.32 1005.84 1005.44 1005.13 1004.91 1004.77 1004.71 1004.71 1004.75 1004.82 1004.91 1005.03 1005.19 1005.41 1005.70 1006.09 1006.57 1007.16 1007.85 1008.61 1009.43 1010.25 1011.06 1011.81 1012.49 1013.09 1013.61 1014.07 1014.48 1014.87 1015.27 1015.69 1016.13 1016.59 1017.07 1017.53 1017.95 1018.34
1009.32 1009.09 1008.70 1008.19 1007.60 1007.00 1006.43 1005.93 1005.54 1005.26 1005.10 1005.04 1005.05 1005.10 1005.16 1005.22 1005.27 1005.32 1005.38 1005.49 1005.67 1005.96 1006.37 1006.92 1007.60 1008.38 1009.23 1010.12 1010.99 1011.81 1012.55 1013.20 1013.77 1014.27 1014.71 1015.15 1015.59 1016.05 1016.55 1017.07 1017.60 1018.12 1018.61 1019.05
1009.53 1009.26 1008.84 1008.30 1007.69 1007.06 1006.49 1006.01 1005.65 1005.43 1005.34 1005.35 1005.44 1005.57 1005.68 1005.77 1005.82 1005.84 1005.85 1005.89 1005.99 1006.20 1006.54 1007.04 1007.68 1008.44 1009.30 1010.20 1011.10 1011.95 1012.73 1013.41 1014.01 1014.54 1015.01 1015.47 1015.95 1016.44 1016.98 1017.54 1018.12 1018.69 1019.22 1019.69
1009.43 1009.15 1008.73 1008.20 1007.61 1007.02 1006.49 1006.05 1005.76 1005.61 1005.60 1005.71 1005.90 1006.11 1006.31 1006.46 1006.55 1006.59 1006.59 1006.60 1006.66 1006.82 1007.10 1007.53 1008.11 1008.82 1009.63 1010.51 1011.39 1012.23 1013.01 1013.71 1014.32 1014.86 1015.36 1015.84 1016.33 1016.85 1017.41 1018.01 1018.61 1019.21 1019.77 1020.26
1009.06 1008.81 1008.44 1007.97 1007.45 1006.93 1006.48 1006.13 1005.92 1005.86 1005.94 1006.15 1006.43 1006.74 1007.03 1007.27 1007.44 1007.54 1007.58 1007.60 1007.65 1007.77 1007.99 1008.35 1008.86 1009.49 1010.23 1011.03 1011.85 1012.65 1013.40 1014.08 1014.68 1015.23 1015.73 1016.22 1016.73 1017.27 1017.84 1018.45 1019.08 1019.69 1020.26 1020.75
1008.56 1008.37 1008.08 1007.72 1007.32 1006.93 1006.59 1006.34 1006.23 1006.26 1006.44 1006.73 1007.10 1007.50 1007.89 1008.23 1008.48 1008.66 1008.76 1008.83 1008.88 1008.98 1009.16 1009.45 1009.86 1010.39 1011.02 1011.72 1012.45 1013.17 1013.86 1014.50 1015.08 1015.62 1016.12 1016.63 1017.14 1017.69 1018.28 1018.90 1019.53 1020.14 1020.71 1021.20
1008.09 1008.00 1007.85 1007.63 1007.39 1007.14 1006.94 1006.82 1006.80 1006.92 1007.16 1007.51 1007.95 1008.42 1008.88 1009.30 1009.64 1009.90 1010.08 1010.19 1010.28 1010.37 1010.51 1010.73 1011.05 1011.46 1011.97 1012.54 1013.15 1013.78 1014.39 1014.97 1015.51 1016.03 1016.53 1017.04 1017.57 1018.13 1018.73 1019.35 1019.98 1020.59 1021.15 1021.63
1007.83 1007.87 1007.88 1007.84 1007.77 1007.68 1007.62 1007.61 1007.69 1007.86 1008.14 1008.53 1008.99 1009.49 1009.99 1010.47 1010.87 1011.20 1011.44 1011.61 1011.73 1011.82 1011.94 1012.09 1012.31 1012.61 1012.99 1013.43 1013.92 1014.43 1014.95 1015.47 1015.97 1016.46 1016.95 1017.46 1018.00 1018.57 1019.17 1019.79 1020.42 1021.03 1021.58 1022.04
1007.88 1008.08 1008.25 1008.39 1008.50 1008.57 1008.64 1008.73 1008.86 1009.07 1009.35 1009.72 1010.17 1010.66 1011.16 1011.66 1012.10 1012.47 1012.77 1012.98 1013.13 1013.24 1013.33 1013.44 1013.58 1013.78 1014.03 1014.35 1014.71 1015.11 1015.54 1015.98 1016.43 1016.89 1017.37 1017.87 1018.41 1018.98 1019.59 1020.21 1020.83 1021.42 1021.96 1022.40
1008.24 1008.59 1008.93 1009.24 1009.50 1009.70 1009.87 1010.03 1010.20 1010.40 1010.66 1010.98 1011.38 1011.83 1012.30 1012.78 1013.23 1013.64 1013.97 1014.23 1014.41 1014.54 1014.63 1014.70 1014.78 1014.89 1015.05 1015.25 1015.50 1015.79 1016.13 1016.49 1016.89 1017.31 1017.77 1018.26 1018.79 1019.36 1019.95 1020.56 1021.17 1021.75 1022.26 1022.69
1008.84 1009.32 1009.79 1010.23 1010.60 1010.91 1011.15 1011.34 1011.51 1011.69 1011.90 1012.17 1012.49 1012.88 1013.31 1013.76 1014.21 1014.63 1014.99 1015.29 1015.51 1015.67 1015.77 1015.83 1015.88 1015.94 1016.01 1016.12 1016.28 1016.48 1016.72 1017.01 1017.35 1017.73 1018.15 1018.62 1019.13 1019.67 1020.25 1020.83 1021.42 1021.97 1022.46 1022.86
1009.54 1010.10 1010.66 1011.17 1011.61 1011.97 1012.25 1012.46 1012.62 1012.77 1012.93 1013.14 1013.40 1013.72 1014.11 1014.53 1014.98 1015.41 1015.81 1016.15 1016.42 1016.62 1016.75 1016.83 1016.87 1016.89 1016.92 1016.96 1017.04 1017.16 1017.32 1017.54 1017.81 1018.14 1018.51 1018.94 1019.42 1019.93 1020.47 1021.03 1021.57 1022.09 1022.55 1022.92
1010.19 1010.78 1011.36 1011.91 1012.37 1012.75 1013.04 1013.25 1013.40 1013.53 1013.65 1013.81 1014.03 1014.32 1014.68 1015.09 1015.54 1016.00 1016.44 1016.84 1017.17 1017.43 1017.61 1017.71 1017.77 1017.78 1017.78 1017.78 1017.79 1017.85 1017.95 1018.09 1018.30 1018.57 1018.89 1019.27 1019.70 1020.17 1020.67 1021.17 1021.67 1022.14 1022.56 1022.90
1010.70 1011.26 1011.82 1012.34 1012.80 1013.17 1013.46 1013.67 1013.82 1013.94 1014.06 1014.21 1014.42 1014.71 1015.07 1015.49 1015.97 1016.47 1016.96 1017.41 1017.81 1018.13 1018.36 1018.52 1018.60 1018.62 1018.61 1018.58 1018.56 1018.56 1018.60 1018.69 1018.84 1019.04 1019.31 1019.64 1020.01 1020.43 1020.87 1021.33 1021.77 1022.19 1022.55 1022.85
1011.03 1011.53 1012.03 1012.50 1012.92 1013.27 1013.56 1013.77 1013.94 1014.09 1014.24 1014.42 1014.66 1014.97 1015.36 1015.83 1016.34 1016.89 1017.43 1017.95 1018.41 1018.79 1019.08 1019.28 1019.40 1019.45 1019.44 1019.40 1019.35 1019.32 1019.31 1019.35 1019.44 1019.59 1019.81 1020.08 1020.40 1020.76 1021.15 1021.55 1021.94 1022.30 1022.61 1022.86
1011.24 1011.65 1012.07 1012.47 1012.85 1013.19 1013.47 1013.72 1013.93 1014.13 1014.33 1014.58 1014.88 1015.25 1015.69 1016.20 1016.77 1017.36 1017.95 1018.52 1019.03 1019.46 1019.80 1020.05 1020.20 1020.27 1020.27 1020.23 1020.17 1020.11 1020.08 1020.08 1020.13 1020.23 1020.40 1020.63 1020.90 1021.21 1021.55 1021.90 1022.23 1022.53 1022.79 1022.99
1011.44 1011.75 1012.09 1012.44 1012.78 1013.11 1013.41 1013.69 1013.96 1014.23 1014.52 1014.84 1015.21 1015.65 1016.15 1016.71 1017.31 1017.94 1018.56 1019.16 1019.70 1020.16 1020.54 1020.81 1020.99 1021.08 1021.10 1021.06 1021.00 1020.93 1020.87 1020.85 1020.87 1020.95 1021.08 1021.27 1021.51 1021.78 1022.07 1022.37 1022.65 1022.91 1023.11 1023.26
1011.72 1011.96 1012.24 1012.54 1012.86 1013.19 1013.52 1013.86 1014.19 1014.54 1014.90 1015.30 1015.74 1016.23 1016.78 1017.36 1017.99 1018.63 1019.26 1019.86 1020.41 1020.88 1021.26 1021.55 1021.74 1021.85 1021.88 1021.86 1021.79 1021.72 1021.66 1021.63 1021.63 1021.69 1021.80 1021.97 1022.17 1022.41 1022.67 1022.93 1023.17 1023.38 1023.53 1023.63
1012.17 1012.36 1012.59 1012.87 1013.19 1013.53 1013.89 1014.27 1014.67 1015.08 1015.51 1015.97 1016.46 1016.98 1017.55 1018.14 1018.75 1019.38 1019.99 1020.57 1021.10 1021.55 1021.93 1022.22 1022.42 1022.53 1022.57 1022.55 1022.50 1022.43 1022.38 1022.34 1022.34 1022.39 1022.48 1022.63 1022.82 1023.04 1023.27 1023.50 1023.71 1023.88 1023.99 1024.05
1012.79 1012.95 1013.17 1013.44 1013.76 1014.12 1014.51 1014.93 1015.37 1015.83 1016.30 1016.78 1017.29 1017.82 1018.38 1018.95 1019.53 1020.11 1020.67 1021.21 1021.70 1022.13 1022.48 1022.75 1022.94 1023.06 1023.11 1023.10 1023.06 1023.00 1022.94 1022.91 1022.91 1022.95 1023.04 1023.18 1023.36 1023.56 1023.77 1023.98 1024.17 1024.31 1024.39 1024.41
1013.52 1013.68 1013.90 1014.17 1014.50 1014.88 1015.29 1015.73 1016.19 1016.66 1017.14 1017.63 1018.13 1018.64 1019.15 1019.68 1020.20 1020.73 1021.23 1021.71 1022.15 1022.53 1022.85 1023.11 1023.29 1023.40 1023.45 1023.44 1023.41 1023.36 1023.31 1023.27 1023.27 1023.31 1023.39 1023.53 1023.69 1023.88 1024.09 1024.28 1024.45 1024.58 1024.64 1024.64
1014.28 1014.45 1014.68 1014.97 1015.30 1015.68 1016.10 1016.54 1016.99 1017.46 1017.92 1018.39 1018.86 1019.32 1019.79 1020.25 1020.71 1021.17 1021.61 1022.03 1022.41 1022.75 1023.03 1023.26 1023.42 1023.52 1023.57 1023.57 1023.53 1023.48 1023.43 1023.39 1023.39 1023.42 1023.50 1023.62 1023.78 1023.96 1024.15 1024.34 1024.51 1024.63 1024.69 1024.69
1014.97 1015.17 1015.41 1015.70 1016.03 1016.41 1016.82 1017.24 1017.68 1018.12 1018.55 1018.98 1019.40 1019.82 1020.23 1020.63 1021.03 1021.42 1021.80 1022.15 1022.48 1022.78 1023.02 1023.22 1023.36 1023.45 1023.48 1023.47 1023.43 1023.38 1023.32 1023.28 1023.26 1023.28 1023.35 1023.46 1023.60 1023.78 1023.97 1024.16 1024.32 1024.46 1024.53 1024.55
1015.54 1015.75 1016.00 1016.30 1016.63 1016.99 1017.38 1017.78 1018.19 1018.60 1019.00 1019.39 1019.77 1020.14 1020.49 1020.85 1021.19 1021.52 1021.85 1022.15 1022.43 1022.68 1022.88 1023.05 1023.16 1023.22 1023.24 1023.21 1023.16 1023.09 1023.02 1022.96 1022.93 1022.94 1022.99 1023.09 1023.23 1023.40 1023.59 1023.78 1023.96 1024.11 1024.21 1024.25
Thickness
5754 5760 5761 5759 5761 5763 5760 5764 5763 5773 5778 5787 5789 5786 5784 5782 5778 5773 5767 5762 5758 5753 5749 5746 5742 5739 5737 5734 5731 5728 5723 5719 5717 5715 5714 5711 5709 5708 5707 5707 5707 5706 5704 5703
5737 5748 5750 5748 5756 5758 5759 5763 5764 5768 5773 5789 5787 5783 5779 5777 5773 5768 5764 5761 5757 5752 5748 5744 5741 5739 5736 5733 5730 5726 5721 5718 5716 5713 5711 5708 5707 5705 5703 5701 5700 5699 5697 5695
5722 5737 5734 5730 5750 5754 5757 5764 5763 5760 5773 5779 5773 5769 5768 5769 5768 5763 5761 5758 5755 5751 5747 5743 5740 5738 5734 5731 5727 5722 5718 5716 5713 5710 5707 5705 5704 5700 5697 5694 5691 5689 5687 5685
5713 5713 5698 5738 5759 5755 5752 5759 5766 5766 5767 5766 5761 5758 5758 5759 5760 5758 5756 5753 5749 5746 5742 5739 5737 5734 5731 5727 5722 5717 5713 5711 5708 5705 5702 5699 5696 5693 5689 5685 5681 5678 5676 5673
5700 5699 5709 5732 5740 5740 5736 5741 5754 5753 5753 5750 5747 5744 5742 5744 5747 5747 5746 5744 5742 5741 5737 5734 5731 5728 5724 5719 5714 5710 5706 5703 5701 5698 5695 5691 5687 5682 5679 5675 5671 5667 5664 5661
5688 5682 5687 5717 5728 5732 5725 5720 5737 5738 5736 5737 5735 5732 5732 5729 5730 5731 5731 5732 5731 5731 5728 5724 5722 5720 5715 5710 5705 5700 5697 5694 5692 5689 5686 5681 5675 5671 5668 5665 5661 5657 5652 5648
5678 5678 5694 5710 5716 5717 5699 5708 5720 5724 5724 5725 5724 5725 5720 5717 5715 5715 5716 5717 5718 5718 5715 5712 5710 5708 5703 5698 5693 5689 5687 5684 5680 5677 5673 5669 5664 5660 5657 5654 5649 5644 5639 5634
5673 5670 5681 5699 5702 5696 5698 5705 5709 5711 5713 5712 5709 5706 5704 5701 5699 5700 5701 5702 5703 5702 5699 5697 5696 5693 5688 5683 5679 5677 5675 5671 5667 5664 5662 5657 5653 5648 5645 5641 5636 5632 5628 5624
5669 5675 5682 5687 5686 5690 5693 5693 5697 5699 5700 5698 5694 5690 5688 5686 5685 5685 5686 5687 5687 5685 5683 5681 5679 5677 5673 5668 5666 5663 5660 5656 5653 5651 5648 5645 5641 5637 5634 5631 5629 5624 5620 5615
5662 5673 5676 5679 5681 5682 5684 5685 5688 5689 5689 5687 5682 5678 5675 5673 5671 5671 5671 5671 5670 5670 5667 5664 5662 5660 5657 5654 5652 5650 5646 5643 5640 5637 5634 5630 5628 5627 5623 5620 5617 5612 5608 5603
5656 5664 5666 5669 5669 5670 5672 5676 5677 5678 5677 5675 5670 5665 5662 5659 5657 5657 5657 5656 5655 5653 5651 5648 5646 5644 5642 5640 5639 5637 5634 5631 5628 5624 5620 5614 5609 5603 5603 5595 5594 5595 5593 5588
5647 5654 5653 5655 5658 5660 5661 5662 5665 5665 5663 5662 5658 5653 5650 5646 5644 5643 5642 5642 5640 5639 5637 5635 5633 5631 5629 5627 5626 5625 5622 5619 5618 5614 5609 5605 5597 5587 5576 5575 5571 5568 5564 5562
5644 5648 5648 5649 5650 5651 5651 5652 5653 5652 5650 5647 5643 5641 5637 5633 5631 5629 5628 5627 5626 5625 5624 5622 5619 5617 5616 5615 5614 5611 5609 5607 5607 5603 5599 5595 5589 5583 5573 5560 5553 5549 5545 5540
5640 5641 5640 5640 5640 5640 5641 5641 5640 5638 5636 5634 5630 5627 5624 5622 5619 5617 5615 5614 5614 5614 5612 5610 5607 5605 5604 5603 5601 5599 5598 5593 5593 5590 5587 5583 5578 5574 5568 5562 5553 5542 5530 5523
5633 5634 5632 5631 5631 5631 5631 5631 5628 5625 5623 5621 5618 5615 5613 5611 5608 5605 5604 5604 5604 5603 5601 5599 5596 5594 5593 5592 5591 5589 5588 5584 5581 5578 5574 5570 5565 5560 5555 5547 5541 5533 5524 5513
5626 5626 5625 5625 5624 5623 5623 5622 5620 5616 5614 5611 5609 5606 5604 5602 5599 5597 5596 5596 5595 5592 5590 5588 5585 5583 5582 5581 5579 5577 5572 5567 5567 5566 5562 5556 5551 5545 5539 5532 5526 5518 5511 5503
5621 5620 5619 5618 5618 5616 5616 5615 5614 5611 5609 5606 5603 5600 5597 5594 5591 5589 5587 5586 5584 5582 5580 5577 5575 5573 5572 5570 5570 5568 5564 5557 5551 5552 5547 5541 5536 5530 5523 5516 5510 5503 5495 5482
5619 5618 5617 5616 5613 5610 5608 5607 5607 5605 5602 5600 5597 5594 5591 5588 5585 5582 5580 5577 5575 5572 5569 5567 5565 5563 5560 5558 5557 5556 5552 5547 5542 5537 5530 5523 5519 5513 5506 5499 5493 5486 5481 5472
5613 5611 5610 5609 5607 5605 5603 5601 5600 5598 5596 5594 5592 5589 5586 5582 5578 5574 5572 5570 5566 5562 5558 5555 5551 5552 5548 5544 5542 5540 5537 5533 5526 5520 5513 5503 5502 5496 5490 5483 5477 5471 5465 5459
5606 5606 5605 5603 5602 5600 5598 5596 5595 5592 5590 5588 5585 5582 5578 5574 5571 5567 5565 5561 5558 5554 5549 5545 5543 5539 5535 5531 5528 5527 5522 5517 5511 5505 5499 5493 5487 5481 5475 5468 5462 5457 5451 5446
5600 5600 5599 5597 5596 5595 5593 5591 5589 5586 5584 5582 5579 5575 5571 5567 5564 5561 5557 5552 5544 5540 5536 5532 5532 5528 5523 5517 5514 5513 5508 5502 5496 5490 5484 5479 5473 5467 5460 5454 5449 5444 5439 5434
5595 5594 5593 5591 5590 5587 5586 5585 5583 5580 5577 5574 5571 5568 5563 5559 5555 5551 5546 5541 5533 5527 5527 5524 5519 5511 5507 5504 5504 5500 5494 5487 5482 5476 5470 5465 5459 5453 5447 5441 5436 5432 5427 5422
5589 5587 5586 5584 5583 5581 5579 5578 5575 5572 5569 5565 5562 5559 5556 5552 5548 5543 5534 5527 5523 5516 5515 5510 5500 5494 5491 5494 5491 5486 5480 5474 5469 5464 5458 5452 5447 5441 5435 5430 5426 5420 5416 5411
5581 5580 5579 5578 5576 5573 5570 5568 5565 5562 5559 5555 5552 5548 5545 5541 5536 5531 5522 5512 5508 5505 5502 5491 5485 5482 5480 5483 5478 5473 5468 5462 5457 5453 5447 5442 5436 5431 5426 5421 5416 5411 5407 5402
5573 5572 5570 5569 5568 5565 5561 5559 5556 5553 5550 5547 5543 5538 5536 5532 5526 5519 5512 5504 5496 5494 5489 5480 5474 5472 5473 5471 5467 5462 5457 5451 5447 5442 5437 5432 5428 5423 5417 5412 5407 5403 5399 5395
5564 5563 5561 5561 5560 5558 5557 5554 5550 5546 5543 5538 5533 5528 5524 5518 5512 5507 5501 5495 5489 5483 5481 5475 5470 5465 5466 5462 5456 5452 5448 5442 5438 5434 5429 5424 5419 5414 5410 5405 5399 5396 5392 5388
5556 5554 5553 5552 5551 5550 5548 5545 5541 5537 5533 5528 5523 5517 5513 5508 5503 5498 5492 5488 5482 5478 5474 5470 5466 5463 5459 5455 5450 5445 5441 5437 5432 5428 5423 5419 5414 5409 5404 5399 5395 5390 5386 5383